Regional Weather Roundup
Issued by NWS

Home | Current Version | Previous Version | Text Only | Print | Product List | Glossary Off
Versions: 1 2 3 4 5 6 7 8 9 10 11 12 13 14 15 16 17 18 19 20 21 22 23 24 25 26 27 28 29 30 31 32 33 34 35 36 37 38 39 40 41 42 43 44 45 46 47 48 49 50

000
ASUS43 KOAX 181402
RWRNE

WEATHER ROUNDUP FOR NEBRASKA
NATIONAL WEATHER SERVICE OMAHA NE
900 AM CDT THU SEP 18 2014

NOTES: SATELLITE DATA IS BEING USED TO AUGMENT CLOUD COVER ABOVE
       12000 FEET.
       "FAIR" INDICATES FEW OR NO CLOUDS BELOW 12,000 FEET WITH NO
       SIGNIFICANT WEATHER AND/OR OBSTRUCTIONS TO VISIBILITY.

  * THESE STATIONS DO NOT REPORT WEATHER SUCH AS RAIN...SNOW OR FOG.

NEZ001>004-019>022-054>056-181500-
NEBRASKA PANHANDLE

CITY           SKY/WX    TMP DP  RH WIND       PRES   REMARKS
SCOTTSBLUFF    FOG       54  54 100 W3        29.97R VSB<1/4
ALLIANCE       CLOUDY    62  59  90 S14       29.96R
CHADRON        SUNNY     52  50  93 CALM      29.92R
KIMBALL        SUNNY     59  44  57 W5        30.01R
SIDNEY         FOG       58  57  97 S7        30.01R VSB 1/4
$$

NEZ057>060-069>072-079>082-181500-
SOUTHWEST NEBRASKA

CITY           SKY/WX    TMP DP  RH WIND       PRES   REMARKS
NORTH PLATTE   CLOUDY    60  59  96 SE9       29.98S FOG
IMPERIAL       CLOUDY    63  62  97 SE9       29.99R FOG
LEXINGTON      CLOUDY    62  61  97 SE9       29.98S FOG
MCCOOK         FOG       63  62  97 E9        29.97R VSB 1/4
OGALLALA       FOG       64  64  98 SE7       29.98R VSB 3/4
$$

NEZ005>010-023>029-035>040-094-181500-
NORTH CENTRAL NEBRASKA

CITY           SKY/WX    TMP DP  RH WIND       PRES   REMARKS
VALENTINE      MOSUNNY   63  59  87 S10       29.94S
AINSWORTH      PTSUNNY   61  61 100 S13       29.96S FOG
BROKEN BOW     CLOUDY    62  61  96 SE12      29.98S FOG
O`NEILL        CLOUDY    63  63 100 S10       29.98R FOG
ORD            CLOUDY    61  61 100 SE7       29.98R FOG
THEDFORD       MOSUNNY   63  61  94 S12       29.98R
$$

NEZ041-046>049-061>064-073>077-083>087-181500-
SOUTH CENTRAL NEBRASKA

CITY           SKY/WX    TMP DP  RH WIND       PRES   REMARKS
GRAND ISLAND   CLOUDY    62  60  93 SE13G21   30.00R FOG
AURORA         CLOUDY    62  62 100 SE8       30.00S FOG
HASTINGS       CLOUDY    62  59  90 SE10G20   29.99R FOG
HEBRON         CLOUDY    64  61  90 SE10G16   30.00S FOG
HOLDREGE       CLOUDY    62  59  92 SE9       29.99R FOG
KEARNEY *      CLOUDY    61  59  94 E12       30.00R
YORK           CLOUDY    63  63 100 SE9       30.02R FOG
$$

NEZ011>018-030>034-042>045-181500-
NORTHEAST NEBRASKA

CITY           SKY/WX    TMP DP  RH WIND       PRES   REMARKS
NORFOLK        FOG       62  62 100 SE10      30.00S VSB 1
ALBION         DRZL/FOG  61  59  94 SE9       30.01R VSB 1/4
BLAIR          CLOUDY    61  59  94 SE8       30.04R FOG
COLUMBUS *     CLOUDY    63  61  94 S9        30.02S
FREMONT        CLOUDY    62  60  93 SE12      30.03R FOG
TEKAMAH        CLOUDY    59  58  96 SE13      30.03R FOG
WAYNE          FOG       61  60  97 S9        30.02R VSB 3/4
$$

NEZ050>053-065>068-078-088>093-181500-
SOUTHEAST NEBRASKA

CITY           SKY/WX    TMP DP  RH WIND       PRES   REMARKS
LINCOLN        CLOUDY    64  61  90 SE10      30.03R
OMAHA EPPLEY   CLOUDY    62  58  86 SE12      30.04R FOG
BEATRICE       PTSUNNY   64  61  91 SE7       30.01R
FALLS CITY     CLOUDY    61  60  97 E9        30.01R FOG
NEBRASKA CITY  CLOUDY    63  61  94 E5        30.03S FOG
PLATTSMOUTH    CLOUDY    63  60  91 E7        30.03F FOG
$$

NEZ044-045-051>053-067-181500-
OMAHA AREA

CITY           SKY/WX    TMP DP  RH WIND       PRES   REMARKS
OMAHA EPPLEY   CLOUDY    62  58  86 SE12      30.04R FOG
BLAIR          CLOUDY    61  59  94 SE8       30.04R FOG
FREMONT        CLOUDY    62  60  93 SE12      30.03R FOG
MILLARD        CLOUDY    63  59  89 SE9       30.03S
OFFUTT AFB     CLOUDY    63  63 100 E9        30.03S
PLATTSMOUTH    CLOUDY    63  60  91 E7        30.03F FOG
WAHOO          CLOUDY    61  59  92 SE12      30.02S FOG
$$


USA.gov is the U.S. government's official web portal to all federal, state and local government web resources and services.